Altus AFB, OK

12:43 AM CDT on July 22, 2017 (GMT -0500)
Altus Air Force Base

Weather History for KLTS - December, 2011

Change the Weather History Date:

Thursday, December 29, 2011

  Actual Average Record
Temperature  
Mean Temperature 46 °F -  
Max Temperature 66 °F 49 °F 71 °F (2005)
Min Temperature 26 °F 25 °F 19 °F (2007)
Degree Days  
Heating Degree Days 19    
Moisture  
Dew Point 33 °F    
Average Humidity 75    
Maximum Humidity 99    
Minimum Humidity 32    
Precipitation  
Precipitation 0.00 in - - ()
Sea Level Pressure  
Sea Level Pressure 29.88 in    
Wind  
Wind Speed 3 mph (South)    
Max Wind Speed 14 mph    
Max Gust Speed -    
Visibility 10 miles    
Events      
Averages and records for this station are not official NWS values.
T = Trace of Precipitation, MM = Missing Value Source: NWS Daily Summary

Daily Weather History Graph

Daily Weather History Graph

Search for Another Location

Airport or City:

Trip Planner

Search our weather history database for the weather conditions in past years. The results will help you decide how hot, cold, wet, or windy it might be!

Date:

Astronomy

Dec. 29, 2011 Rise Set
Actual Time 7:43 AM CST 5:34 PM CST
Civil Twilight 7:15 AM CST 6:02 PM CST
Nautical Twilight 6:43 AM CST 6:34 PM CST
Astronomical Twilight 6:13 AM CST 7:05 PM CST
Moon 10:50 AM CST (12/29) 10:58 PM CST (12/29)
Length of Visible Light 10h 47m
Length of Day
9h 51m
Waxing Crescent, 27% of the Moon is Illuminated
Dec 29
Waxing Crescent
Jan 1
First Quarter
Jan 9
Full
Jan 16
Last Quarter
Jan 23
New

Hourly Weather History & Observations

Time (CST) Temp. Windchill Dew Point Humidity Pressure Visibility Wind Dir Wind Speed Gust Speed Precip Events Conditions
12:55 AM 30.6 °F - 28.8 °F 93% 30.03 in 10.0 mi Calm Calm - N/A   Clear
1:55 AM 31.8 °F - 29.5 °F 91% 30.02 in 10.0 mi Calm Calm - N/A   Clear
2:55 AM 32.2 °F - 30.0 °F 92% 30.00 in 10.0 mi Calm Calm - N/A   Clear
3:55 AM 30.7 °F - 30.6 °F 99% 29.99 in 10.0 mi Calm Calm - N/A   Clear
4:55 AM 29.5 °F - 28.8 °F 97% 29.98 in 10.0 mi Calm Calm - N/A   Clear
5:55 AM 30.9 °F - 28.2 °F 90% 29.96 in 10.0 mi Calm Calm - N/A   Clear
6:55 AM 27.7 °F - 27.3 °F 99% 29.97 in 10.0 mi Calm Calm - N/A   Clear
7:55 AM 26.1 °F - 25.5 °F 98% 29.97 in 10.0 mi Calm Calm - N/A   Clear
8:55 AM 30.9 °F - 30.6 °F 99% 29.97 in 10.0 mi Calm Calm - N/A   Clear
9:55 AM 37.4 °F 32.8 °F 34.0 °F 87% 29.96 in 10.0 mi South 5.8 mph - N/A   Clear
10:55 AM 44.1 °F 41.5 °F 35.8 °F 73% 29.95 in 10.0 mi SSW 4.6 mph - N/A   Clear
11:55 AM 49.5 °F - 37.4 °F 63% 29.90 in 10.0 mi South 5.8 mph - N/A   Clear
12:55 PM 56.7 °F - 36.5 °F 47% 29.84 in 10.0 mi South 8.1 mph - N/A   Clear
1:55 PM 61.2 °F - 36.1 °F 39% 29.80 in 10.0 mi South 13.8 mph - N/A   Clear
2:55 PM 63.9 °F - 34.7 °F 34% 29.78 in 10.0 mi SSW 13.8 mph - N/A   Clear
3:55 PM 66.2 °F - 35.8 °F 32% 29.75 in 10.0 mi South 12.7 mph - N/A   Clear
4:55 PM 62.8 °F - 35.8 °F 37% 29.75 in 10.0 mi South 11.5 mph - N/A   Clear
5:55 PM 52.3 °F - 36.5 °F 55% 29.75 in 10.0 mi SSE 6.9 mph - N/A   Clear
6:55 PM 46.6 °F - 36.3 °F 67% 29.79 in 10.0 mi Calm Calm - N/A   Clear
7:55 PM 41.5 °F 38.6 °F 36.5 °F 82% 29.78 in 10.0 mi East 4.6 mph - N/A   Clear
8:55 PM 45.7 °F - 36.3 °F 70% 29.78 in 10.0 mi Calm Calm - N/A   Clear
9:55 PM 38.3 °F 34.8 °F 35.1 °F 88% 29.78 in 10.0 mi NE 4.6 mph - N/A   Clear
10:55 PM 41.2 °F 39.2 °F 34.9 °F 78% 29.79 in 10.0 mi NE 3.5 mph - N/A   Clear
11:55 PM 40.3 °F 37.1 °F 34.5 °F 80% 29.80 in 10.0 mi NNW 4.6 mph - N/A   Clear